ELECTRON R/B (47348 NORAD) Tracking and Keplerian Element Data

This shows tracking and keplerian element data for the satellite.

Feedback or suggestion? Click here.




ElementValue
Catalog47348
NameELECTRON R/B
Epoch Orbit435
Epoch Day50.20132251
Epoch Year2021
RAAN229.8269
Inclination89.9938
Eccentricity0.0663037
Argument of Perigee168.5733
Mean Anonmoly193.1426
Mean Motion14.63556074
Decay Rate0.0026602
L11 47348U 21004C 21050.20132251 .00266020 -73596-6 98858-3 0 9991
L22 47348 89.9938 229.8269 0663037 168.5733 193.1426 14.63556074 4359

Live tracking and technical data element details for ELECTRON R/B (NORAD 47348). ELECTRON R/B can be tracked NOW for your location showing map with azimuth and elevation plus other details from your city location.

Track the satellite on the map from your city or location and see movement details for azimuth, elevation, latitude, longitude, range, height, and movement on the map or in text.







IsCatalogInMostPopularTable: catalog: 47348, numindb: 20
Update: records affected: 1



GetName: 47348 ELECTRON R/B

Hit Count: updated at: Tue, 13 Apr 2021 03:39:17 GMT